Location: Unnamed
(45.3580°N, 90.2245°W)
Time: 02:53:53
(UTC-06:00)

ISS - Visible Passes

Search period start: 20 January 2026 00:00
Search period end: 30 January 2026 00:00
Orbit: 413 x 424 km, 51.6° (Epoch: 19 January)

Date Brightness Start Highest point End Pass type
(mag) Time Alt. Az. Time Alt. Az. Time Alt. Az.
20 Jan -2.3 18:40:19 10° WNW 18:43:04 27° N 18:43:04 27° N visible
21 Jan -2.4 17:52:16 10° WNW 17:55:11 27° N 17:57:10 16° NE visible
21 Jan -0.9 19:29:20 10° NW 19:30:06 15° NW 19:30:06 15° NW visible
22 Jan -2.6 18:41:26 10° NW 18:44:12 31° N 18:44:12 31° N visible
23 Jan -2.5 17:53:27 10° NW 17:56:24 28° N 17:58:19 17° ENE visible
23 Jan -1.1 19:30:12 10° WNW 19:31:15 19° NW 19:31:15 19° NW visible
24 Jan -3.4 18:42:16 10° NW 18:45:25 50° NNE 18:45:25 50° NNE visible
25 Jan -3.1 17:54:17 10° NW 17:57:28 38° NNE 17:59:38 17° E visible
25 Jan -1.4 19:31:03 10° WNW 19:32:35 24° W 19:32:35 24° W visible
26 Jan -3.8 18:42:59 10° WNW 18:46:19 77° SSW 18:46:55 56° SE visible
27 Jan -3.8 17:54:55 10° WNW 17:58:16 70° NNE 18:01:22 12° ESE visible
27 Jan -1.2 19:32:15 10° W 19:34:21 19° SW 19:34:21 19° SW visible
28 Jan -2.0 18:43:48 10° WNW 18:46:48 31° SW 18:49:00 15° SSE visible
29 Jan -2.9 17:55:32 10° WNW 17:58:47 50° SW 18:02:01 10° SE visible
